�N����,����,�~����,�C��,���x,�C��,����,���ϕ���,�ő�u�ԕ���,�ő厞����,���˗�,�I�_���x,�n�����x,�ő啗���N��,DTYPE
"20/11/15","00:10",0.0,8.2,87.9,1023.9,318.0,2.2,3.3,312.5,0.00,6.4,12.2,"00:01:20",1
"20/11/15","00:20",0.0,7.8,88.1,1023.9,296.4,1.8,3.1,327.9,0.00,6.0,12.3,"00:13:04",1
"20/11/15","00:30",0.0,7.7,88.8,1024.1,312.7,2.0,5.2,331.4,0.00,6.0,12.2,"00:28:48",1
"20/11/15","00:40",0.0,7.8,88.9,1023.9,297.1,2.0,3.6,316.5,0.00,6.1,12.1,"00:30:48",1
"20/11/15","00:50",0.0,7.7,89.4,1024.1,302.6,2.2,3.7,334.9,0.00,6.1,12.2,"00:48:48",1
"20/11/15","01:00",0.0,7.5,89.4,1023.9,296.0,1.8,3.3,314.3,0.00,5.9,12.2,"00:54:08",1
"20/11/15","01:10",0.0,7.2,89.8,1023.9,306.5,2.1,3.6,322.2,0.00,5.7,12.1,"01:00:02",1
"20/11/15","01:20",0.0,7.4,90.1,1024.4,300.1,2.2,3.9,339.4,0.00,5.9,12.1,"01:10:16",1
"20/11/15","01:30",0.0,7.1,90.4,1024.4,283.9,1.7,3.2,309.7,0.00,5.7,12.0,"01:25:36",1
"20/11/15","01:40",0.0,7.0,90.6,1024.1,286.1,1.8,2.6,318.4,0.00,5.6,11.8,"01:30:48",1
"20/11/15","01:50",0.0,6.9,90.9,1024.1,296.6,2.1,3.3,313.1,0.00,5.6,12.0,"01:44:16",1
"20/11/15","02:00",0.0,6.9,91.1,1024.1,321.9,2.2,3.3,315.4,0.00,5.6,11.7,"01:57:20",1
"20/11/15","02:10",0.0,7.2,91.5,1024.1,320.0,2.1,4.3,320.9,0.00,6.0,11.9,"02:05:52",1
"20/11/15","02:20",0.0,7.6,91.3,1024.4,328.9,2.8,4.7,333.6,0.00,6.3,11.8,"02:14:48",1
"20/11/15","02:30",0.0,7.3,91.4,1023.9,324.2,2.8,3.7,338.1,0.00,6.0,11.8,"02:20:24",1
"20/11/15","02:40",0.0,7.1,91.4,1023.9,296.4,2.2,4.2,319.8,0.00,5.8,11.8,"02:32:08",1
"20/11/15","02:50",0.0,6.8,91.6,1024.1,315.7,1.6,2.7,315.6,0.00,5.6,11.8,"02:41:52",1
"20/11/15","03:00",0.0,6.4,91.6,1024.1,321.2,1.8,2.5,332.2,0.00,5.2,11.5,"02:54:16",1
"20/11/15","03:10",0.0,6.0,91.9,1024.1,299.5,1.5,2.6,307.3,0.00,4.8,11.7,"03:09:38",1
"20/11/15","03:20",0.0,6.2,92.1,1023.9,314.0,2.0,3.3,337.5,0.00,5.1,11.6,"03:14:56",1
"20/11/15","03:30",0.0,5.9,92.1,1023.9,302.7,1.5,2.0,319.2,0.00,4.8,11.7,"03:22:40",1
"20/11/15","03:40",0.0,5.8,92.2,1024.1,297.1,1.2,2.6,317.3,0.00,4.7,11.4,"03:32:34",1
"20/11/15","03:50",0.0,5.6,92.5,1024.1,292.8,1.3,2.6,332.4,0.00,4.5,11.2,"03:47:24",1
"20/11/15","04:00",0.0,5.6,92.7,1023.9,285.4,1.5,2.7,304.8,0.00,4.6,11.2,"03:57:52",1
"20/11/15","04:10",0.0,5.7,92.7,1024.1,294.4,1.6,2.6,302.0,0.00,4.7,11.0,"04:01:44",1
"20/11/15","04:20",0.0,5.7,92.8,1024.1,281.7,1.5,2.0,295.8,0.00,4.7,11.2,"04:19:38",1
"20/11/15","04:30",0.0,5.6,93.0,1024.1,295.5,1.6,3.5,326.4,0.00,4.6,11.0,"04:26:16",1
"20/11/15","04:40",0.0,5.8,93.2,1024.1,283.1,1.6,2.7,316.9,0.00,4.8,11.1,"04:39:28",1
"20/11/15","04:50",0.0,5.9,93.2,1023.7,284.9,1.5,2.0,291.5,0.00,4.9,11.1,"04:44:24",1
"20/11/15","05:00",0.0,5.8,93.3,1023.9,287.7,1.5,2.2,258.3,0.00,4.8,11.1,"04:52:08",1
"20/11/15","05:10",0.0,5.8,93.5,1024.1,313.3,1.3,2.0,318.9,0.00,4.9,10.8,"05:06:00",1
"20/11/15","05:20",0.0,5.3,93.4,1023.7,317.1,1.6,2.2,314.5,0.00,4.4,11.0,"05:15:44",1
"20/11/15","05:30",0.0,4.7,93.7,1024.1,310.8,1.8,2.0,321.1,0.00,3.8,10.8,"05:20:16",1
"20/11/15","05:40",0.0,4.5,94.0,1024.1,301.7,1.5,2.0,302.9,0.00,3.7,10.9,"05:37:08",1
"20/11/15","05:50",0.0,4.8,94.2,1023.9,281.1,1.5,1.8,296.7,0.00,4.0,10.7,"05:44:10",1
"20/11/15","06:00",0.0,5.0,94.2,1023.9,310.3,1.5,2.2,320.2,0.00,4.2,10.9,"05:56:22",1
"20/11/15","06:10",0.0,4.8,94.2,1024.1,308.0,1.6,2.5,320.9,0.00,4.0,10.9,"06:01:04",1
"20/11/15","06:20",0.0,4.5,94.4,1023.9,300.7,1.6,2.1,321.0,0.00,3.7,10.7,"06:19:42",1
"20/11/15","06:30",0.0,4.5,94.6,1023.9,304.1,1.5,1.9,326.7,0.00,3.7,10.7,"06:21:20",1
"20/11/15","06:40",0.0,4.2,94.6,1024.1,284.8,0.8,1.8,309.1,0.00,3.5,10.7,"06:38:56",1
"20/11/15","06:50",0.0,4.2,94.9,1024.1,305.0,1.6,2.2,315.6,0.00,3.5,10.5,"06:45:32",1
"20/11/15","07:00",0.0,4.2,95.0,1024.1,300.9,1.5,2.4,325.3,0.00,3.5,10.5,"06:59:08",1
"20/11/15","07:10",0.0,4.8,95.1,1024.4,316.3,1.7,2.2,326.9,0.00,4.1,10.6,"07:03:28",1
"20/11/15","07:20",0.0,5.2,95.2,1024.6,289.1,1.0,1.4,303.0,0.00,4.5,10.5,"07:10:16",1
"20/11/15","07:30",0.0,6.0,95.1,1024.9,288.5,0.8,1.2,300.7,0.01,5.3,10.6,"07:21:20",1
"20/11/15","07:40",0.0,6.8,95.0,1024.9,305.1,1.1,2.0,310.8,0.02,6.1,10.7,"07:37:36",1
"20/11/15","07:50",0.0,7.6,94.9,1025.1,301.1,0.6,1.6,313.6,0.03,6.9,10.7,"07:40:08",1
"20/11/15","08:00",0.0,8.1,94.9,1025.6,329.1,0.5,1.4,311.7,0.04,7.4,10.8,"07:52:00",1
"20/11/15","08:10",0.0,9.1,94.9,1025.6,295.7,0.6,1.1,318.2,0.06,8.4,10.9,"08:07:04",1
"20/11/15","08:20",0.0,9.8,94.7,1025.6,301.4,0.3,1.1,319.3,0.09,9.0,10.8,"08:14:16",1
"20/11/15","08:30",0.0,10.5,94.4,1025.3,291.2,0.3,1.0,321.3,0.12,9.7,11.1,"08:29:20",1
"20/11/15","08:40",0.0,11.1,93.9,1025.8,259.9,0.3,1.3,338.3,0.14,10.2,11.3,"08:37:20",1
"20/11/15","08:50",0.0,11.7,93.6,1026.0,266.6,0.6,1.1,254.2,0.17,10.7,11.4,"08:40:16",1
"20/11/15","09:00",0.0,12.3,92.7,1025.8,279.1,0.5,1.2,250.4,0.19,11.2,11.7,"08:56:40",1
"20/11/15","09:10",0.0,12.7,91.6,1026.5,233.1,0.5,1.2,227.5,0.22,11.4,11.8,"09:02:40",1
"20/11/15","09:20",0.0,13.2,90.2,1026.7,263.2,0.6,1.7,240.4,0.23,11.7,12.1,"09:11:52",1
"20/11/15","09:30",0.0,13.5,86.9,1026.7,144.5,0.3,0.9,115.1,0.27,11.4,12.3,"09:26:56",1
"20/11/15","09:40",0.0,14.3,83.6,1026.3,206.7,0.3,0.9,134.3,0.29,11.6,12.5,"09:38:00",1
"20/11/15","09:50",0.0,15.1,78.2,1026.0,249.0,0.6,1.6,242.6,0.31,11.4,12.6,"09:46:24",1
"20/11/15","10:00",0.0,16.0,72.2,1025.6,281.9,0.5,1.3,339.1,0.32,11.0,12.8,"09:52:32",1
"20/11/15","10:10",0.0,16.6,66.7,1025.3,229.4,0.7,2.0,229.4,0.34,10.4,13.2,"10:08:24",1
"20/11/15","10:20",0.0,17.2,64.0,1025.1,163.5,0.7,2.0,216.4,0.34,10.4,13.3,"10:10:02",1
"20/11/15","10:30",0.0,17.4,62.7,1025.1,221.5,1.0,2.2,241.8,0.36,10.3,13.5,"10:20:08",1
"20/11/15","10:40",0.0,18.1,61.6,1024.9,188.5,0.7,1.8,225.2,0.38,10.7,13.7,"10:32:32",1
"20/11/15","10:50",0.0,18.7,59.9,1024.9,192.0,0.7,2.1,117.7,0.39,10.8,14.0,"10:49:04",1
"20/11/15","11:00",0.0,19.0,59.3,1024.4,218.6,0.8,2.1,224.2,0.41,10.9,14.2,"10:57:04",1
"20/11/15","11:10",0.0,19.2,59.5,1024.4,203.8,1.3,2.7,231.2,0.42,11.2,14.2,"11:00:56",1
"20/11/15","11:20",0.0,19.5,59.5,1023.9,132.1,0.8,2.2,121.7,0.42,11.5,14.6,"11:12:56",1
"20/11/15","11:30",0.0,19.8,57.4,1023.2,179.0,0.7,1.9,272.2,0.43,11.2,14.8,"11:29:36",1
"20/11/15","11:40",0.0,20.1,57.6,1023.4,224.7,1.0,2.6,202.1,0.43,11.5,15.2,"11:32:16",1
"20/11/15","11:50",0.0,20.6,55.7,1023.0,244.6,0.7,2.2,218.0,0.43,11.5,15.3,"11:41:20",1
"20/11/15","12:00",0.0,20.9,53.3,1023.0,351.0,0.8,2.2,342.2,0.43,11.1,15.2,"11:50:56",1
"20/11/15","12:10",0.0,21.1,53.3,1022.3,257.2,0.7,1.8,195.5,0.43,11.3,15.7,"12:05:36",1
"20/11/15","12:20",0.0,21.5,52.8,1022.5,261.3,0.6,1.6,193.4,0.43,11.5,16.1,"12:14:40",1
"20/11/15","12:30",0.0,21.0,52.3,1022.0,219.1,1.3,2.9,232.5,0.43,10.9,15.8,"12:28:56",1
"20/11/15","12:40",0.0,21.3,53.3,1021.5,158.6,0.8,2.4,222.5,0.42,11.5,16.4,"12:30:24",1
"20/11/15","12:50",0.0,21.6,52.3,1021.5,193.6,0.7,1.8,234.2,0.41,11.5,16.5,"12:45:44",1
"20/11/15","13:00",0.0,21.8,51.3,1021.1,189.4,1.0,2.4,205.3,0.40,11.4,16.4,"12:59:12",1
"20/11/15","13:10",0.0,22.1,50.5,1021.1,234.9,1.1,2.1,203.3,0.39,11.4,16.7,"13:00:48",1
"20/11/15","13:20",0.0,22.6,49.2,1020.8,183.1,0.5,1.2,215.0,0.38,11.5,16.5,"13:15:12",1
"20/11/15","13:30",0.0,22.5,47.9,1020.8,227.1,1.0,2.5,216.6,0.36,11.0,17.1,"13:28:56",1
"20/11/15","13:40",0.0,22.5,49.6,1020.6,205.3,1.1,3.3,226.7,0.35,11.5,16.8,"13:31:44",1
"20/11/15","13:50",0.0,22.7,47.6,1020.6,171.5,0.6,1.8,204.7,0.33,11.0,17.2,"13:45:36",1
"20/11/15","14:00",0.0,22.8,46.8,1020.4,226.8,1.1,2.4,232.5,0.31,10.9,17.2,"13:56:40",1
"20/11/15","14:10",0.0,22.4,47.7,1020.4,196.2,1.2,3.9,231.3,0.28,10.8,17.2,"14:07:52",1
"20/11/15","14:20",0.0,22.5,48.5,1020.4,207.0,1.3,3.6,229.9,0.27,11.1,17.3,"14:17:52",1
"20/11/15","14:30",0.0,23.0,49.0,1020.1,189.4,0.6,2.0,117.7,0.25,11.8,17.5,"14:24:32",1
"20/11/15","14:40",0.0,22.7,48.6,1020.1,176.2,0.7,1.8,232.6,0.15,11.4,17.2,"14:31:36",1
"20/11/15","14:50",0.0,22.5,49.6,1020.1,177.0,0.8,2.7,208.1,0.22,11.5,17.4,"14:48:32",1
"20/11/15","15:00",0.0,22.3,50.5,1020.4,166.7,0.8,2.4,213.8,0.19,11.6,17.3,"14:59:20",1
"20/11/15","15:10",0.0,22.2,51.2,1020.6,179.6,1.2,3.2,121.1,0.18,11.7,17.2,"15:02:56",1
"20/11/15","15:20",0.0,21.9,50.7,1020.4,194.4,1.2,3.2,201.1,0.14,11.3,17.3,"15:19:12",1
"20/11/15","15:30",0.0,21.9,52.4,1020.1,171.6,1.0,2.6,216.5,0.12,11.8,17.4,"15:20:32",1
"20/11/15","15:40",0.0,21.4,52.9,1020.1,197.5,1.1,2.4,203.2,0.08,11.4,17.1,"15:38:16",1
"20/11/15","15:50",0.0,20.6,55.4,1020.1,202.0,0.7,2.0,227.3,0.01,11.4,17.0,"15:43:36",1
"20/11/15","16:00",0.0,20.1,57.7,1020.6,214.1,0.6,1.4,188.1,0.02,11.5,17.1,"15:53:04",1
"20/11/15","16:10",0.0,19.9,60.0,1020.4,237.1,0.3,1.0,249.6,0.03,12.0,16.8,"16:08:24",1
"20/11/15","16:20",0.0,19.7,61.0,1020.6,286.4,0.7,1.2,240.5,0.03,12.0,16.8,"16:10:08",1
"20/11/15","16:30",0.0,19.2,62.8,1020.6,296.1,0.6,1.2,309.6,0.01,12.0,16.7,"16:26:32",1
"20/11/15","16:40",0.0,18.6,64.8,1020.4,308.6,0.6,1.2,318.2,0.00,11.9,16.7,"16:38:48",1
"20/11/15","16:50",0.0,17.7,66.9,1020.8,287.4,0.7,1.1,331.8,0.00,11.5,16.3,"16:40:24",1
"20/11/15","17:00",0.0,17.4,68.8,1020.8,303.1,1.0,1.8,342.1,0.00,11.7,16.3,"16:58:00",1
"20/11/15","17:10",0.0,16.6,69.9,1021.1,283.8,0.5,1.2,323.5,0.00,11.1,16.3,"17:00:56",1
"20/11/15","17:20",0.0,16.2,71.2,1021.3,295.4,0.8,1.3,309.5,0.00,11.0,16.0,"17:14:56",1
"20/11/15","17:30",0.0,15.7,72.3,1021.1,294.6,0.8,1.2,324.3,0.00,10.8,15.8,"17:20:56",1
"20/11/15","17:40",0.0,15.4,73.9,1021.3,298.6,0.8,1.6,330.3,0.00,10.8,15.8,"17:37:52",1
"20/11/15","17:50",0.0,15.2,75.5,1021.1,293.4,0.6,1.6,327.2,0.00,10.9,15.7,"17:40:02",1
"20/11/15","18:00",0.0,14.9,77.9,1021.1,327.5,1.3,1.9,333.5,0.00,11.1,15.7,"17:57:04",1
"20/11/15","18:10",0.0,14.3,79.6,1021.1,295.3,1.0,1.4,304.1,0.00,10.9,15.6,"18:08:08",1
"20/11/15","18:20",0.0,14.4,81.0,1021.3,290.0,1.1,2.2,325.8,0.00,11.2,15.3,"18:10:08",1
"20/11/15","18:30",0.0,14.3,81.8,1021.3,298.8,1.0,1.6,312.7,0.00,11.3,15.2,"18:27:44",1
"20/11/15","18:40",0.0,14.3,82.5,1021.8,303.3,1.0,1.4,332.2,0.00,11.4,15.3,"18:37:20",1
"20/11/15","18:50",0.0,14.0,83.1,1021.5,299.6,0.8,1.2,317.8,0.00,11.2,15.1,"18:44:08",1
"20/11/15","19:00",0.0,13.8,83.6,1021.5,286.0,0.5,1.2,313.6,0.00,11.1,15.0,"18:59:36",1
"20/11/15","19:10",0.0,14.0,84.2,1021.8,316.0,0.8,1.6,324.5,0.00,11.4,15.1,"19:02:00",1
"20/11/15","19:20",0.0,14.1,84.7,1021.5,323.3,1.2,1.8,316.9,0.00,11.6,15.1,"19:17:04",1
"20/11/15","19:30",0.0,13.9,85.0,1021.5,298.6,1.0,1.3,313.3,0.00,11.5,14.9,"19:20:32",1
"20/11/15","19:40",0.0,13.8,85.4,1021.5,307.9,1.0,1.2,301.8,0.00,11.4,15.0,"19:32:56",1
"20/11/15","19:50",0.0,13.8,85.8,1021.8,313.0,0.8,1.3,315.8,0.00,11.5,15.0,"19:40:40",1
"20/11/15","20:00",0.0,13.7,86.3,1021.5,316.6,1.1,1.6,315.6,0.00,11.5,14.8,"19:51:20",1
"20/11/15","20:10",0.0,13.4,86.6,1021.8,308.0,1.1,1.8,320.7,0.00,11.3,14.7,"20:00:40",1
"20/11/15","20:20",0.0,13.2,87.2,1021.8,304.2,0.7,1.2,353.8,0.00,11.2,14.6,"20:10:48",1
"20/11/15","20:30",0.0,13.0,87.5,1021.3,298.3,0.7,1.3,269.8,0.00,11.0,14.9,"20:21:12",1
"20/11/15","20:40",0.0,12.7,88.0,1021.3,313.7,1.1,1.9,324.9,0.00,10.8,14.6,"20:37:52",1
"20/11/15","20:50",0.0,12.4,88.2,1021.5,310.6,1.0,1.3,319.2,0.00,10.5,14.6,"20:49:54",1
"20/11/15","21:00",0.0,12.3,88.6,1021.3,311.7,1.2,1.6,321.4,0.00,10.5,14.3,"20:57:08",1
"20/11/15","21:10",0.0,12.1,88.9,1021.3,297.3,0.8,1.7,325.8,0.00,10.4,14.3,"21:02:12",1
"20/11/15","21:20",0.0,11.9,89.2,1021.5,314.8,1.2,1.8,325.1,0.00,10.2,14.3,"21:13:22",1
"20/11/15","21:30",0.0,12.0,89.7,1021.3,324.7,1.5,1.9,323.1,0.00,10.4,13.9,"21:22:00",1
"20/11/15","21:40",0.0,11.8,89.9,1021.5,300.8,0.8,1.3,323.2,0.00,10.2,14.3,"21:31:38",1
"20/11/15","21:50",0.0,11.7,90.2,1021.5,310.1,0.7,1.6,319.4,0.00,10.2,14.2,"21:46:06",1
"20/11/15","22:00",0.0,11.8,90.6,1021.3,315.5,1.1,1.9,316.9,0.00,10.4,14.1,"21:55:42",1
"20/11/15","22:10",0.0,12.0,90.8,1021.3,310.5,1.2,1.6,311.1,0.00,10.6,14.2,"22:00:08",1
"20/11/15","22:20",0.0,12.1,91.1,1021.3,301.9,1.0,1.3,322.1,0.00,10.7,14.1,"22:12:50",1
"20/11/15","22:30",0.0,12.1,91.3,1021.5,288.0,0.7,1.1,254.9,0.00,10.8,14.1,"22:27:52",1
"20/11/15","22:40",0.0,12.3,91.5,1021.5,310.8,0.6,1.1,312.1,0.00,11.0,13.9,"22:37:50",1
"20/11/15","22:50",0.0,12.5,91.7,1021.3,315.3,1.0,1.6,320.1,0.00,11.2,14.0,"22:44:56",1
"20/11/15","23:00",0.0,12.3,91.8,1021.3,286.0,0.8,1.2,324.5,0.00,11.0,14.1,"22:50:50",1
"20/11/15","23:10",0.0,12.1,91.9,1021.3,302.8,0.8,1.4,312.7,0.00,10.9,14.2,"23:03:00",1
"20/11/15","23:20",0.0,12.0,92.2,1021.3,321.5,1.5,1.7,324.4,0.00,10.8,14.1,"23:12:30",1
"20/11/15","23:30",0.0,11.7,92.3,1021.3,309.9,0.6,1.3,317.5,0.00,10.5,14.1,"23:20:10",1
"20/11/15","23:40",0.0,11.3,92.5,1021.1,309.4,1.1,1.4,318.6,0.00,10.2,13.8,"23:38:42",1
"20/11/15","23:50",0.0,11.0,92.8,1021.3,300.0,1.1,1.6,326.0,0.00,9.9,13.9,"23:49:28",1
"20/11/15","24:00",0.0,10.9,92.9,1021.5,318.4,1.0,1.7,326.5,0.00,9.8,13.7,"23:50:08",1
